Deering, AK

10:49 AM AKDT on May 25, 2017 (GMT -0800)
Deering (New)

Weather History for PADE - December, 2012

Change the Weather History Date:

Wednesday, December 12, 2012

  Actual Average (PAOT) Record (PAOT)
Temperature  
Mean Temperature -4 °F -  
Max Temperature 1 °F 5 °F 32 °F (1986)
Min Temperature -9 °F -8 °F -32 °F (1999)
Degree Days  
Heating Degree Days 69    
Moisture  
Dew Point -8 °F    
Average Humidity 76    
Maximum Humidity 80    
Minimum Humidity 72    
Precipitation  
Precipitation 0.00 in - - ()
Sea Level Pressure  
Sea Level Pressure 29.28 in    
Wind  
Wind Speed 14 mph (NW)    
Max Wind Speed 18 mph    
Max Gust Speed 26 mph    
Visibility 5 miles    
Events Snow    
Averages and records for this station are not official NWS values.
T = Trace of Precipitation, MM = Missing Value Source: NWS Daily Summary

Daily Weather History Graph

Daily Weather History Graph

Search for Another Location

Airport or City:

Trip Planner

Search our weather history database for the weather conditions in past years. The results will help you decide how hot, cold, wet, or windy it might be!

Date:

Astronomy

Dec. 12, 2012 Rise Set
Actual Time 12:15 PM AKST 3:14 PM AKST
Civil Twilight 10:37 AM AKST 4:52 PM AKST
Nautical Twilight 9:20 AM AKST 6:09 PM AKST
Astronomical Twilight 8:16 AM AKST 7:14 PM AKST
Moon 11:14 AM AKST (12/12) 3:23 PM AKST (12/12)
Length of Visible Light 6h 15m
Length of Day
2h 59m
Waning Crescent, 0% of the Moon is Illuminated
Dec 12
Waning Crescent
Dec 12
New
Dec 19
First Quarter
Dec 28
Full
Jan 4
Last Quarter

Hourly Weather History & Observations

Time (AKST) Temp. Windchill Dew Point Humidity Pressure Visibility Wind Dir Wind Speed Gust Speed Precip Events Conditions
12:53 AM -2.0 °F -23.9 °F -8.0 °F 76% 29.44 in 7.0 mi NNE 18.4 mph 26.5 mph N/A   Overcast
1:53 AM -2.9 °F -21.6 °F -8.0 °F 79% 29.41 in 7.0 mi NNE 12.7 mph - N/A   Overcast
3:13 AM -0.4 °F -21.2 °F -7.6 °F 72% 29.36 in 2.0 mi NNE 17.3 mph - 0.00 in Snow Light Snow
3:22 AM -0.4 °F -18.4 °F -7.6 °F 72% 29.36 in 1.8 mi NE 12.7 mph 23.0 mph 0.00 in Snow Light Snow
3:38 AM -0.4 °F -17.6 °F -7.6 °F 72% 29.35 in 2.0 mi NE 11.5 mph - 0.00 in Snow Light Snow
3:53 AM -0.9 °F -21.9 °F -6.0 °F 79% 29.34 in 2.5 mi NE 17.3 mph - 0.00 in Snow Light Snow
4:00 AM -0.4 °F -19.9 °F -5.8 °F 78% 29.33 in 3.0 mi NE 15.0 mph - 0.00 in Snow Light Snow
4:15 AM -0.4 °F -19.9 °F -5.8 °F 78% 29.32 in 3.0 mi North 15.0 mph 21.9 mph 0.00 in Snow Light Snow
4:28 AM -0.4 °F -18.4 °F -5.8 °F 78% 29.31 in 2.5 mi North 12.7 mph - 0.00 in Snow Light Snow
4:53 AM -0.9 °F -20.6 °F -6.0 °F 79% 29.31 in 2.5 mi North 15.0 mph - 0.00 in Snow Light Snow
5:16 AM -0.4 °F -19.2 °F -7.6 °F 72% 29.29 in 3.0 mi North 13.8 mph - 0.00 in Snow Light Snow
5:43 AM -0.4 °F -19.9 °F -7.6 °F 72% 29.28 in 2.5 mi North 15.0 mph - 0.00 in Snow Light Snow
5:53 AM -0.9 °F -21.2 °F -7.1 °F 75% 29.28 in 2.5 mi North 16.1 mph - 0.00 in Snow Light Snow
6:25 AM -0.4 °F -19.2 °F -7.6 °F 72% 29.27 in 2.0 mi North 13.8 mph - 0.00 in Snow Light Snow
6:38 AM -0.4 °F -17.6 °F -7.6 °F 72% 29.27 in 3.0 mi North 11.5 mph - 0.00 in Snow Light Snow
6:53 AM -0.9 °F -19.1 °F -7.1 °F 75% 29.27 in 6.0 mi North 12.7 mph - 0.00 in Snow Light Snow
7:53 AM -2.0 °F -20.5 °F -7.1 °F 79% 29.26 in 7.0 mi NNW 12.7 mph - 0.00 in Snow Light Snow
8:53 AM -0.9 °F -19.9 °F -6.0 °F 79% 29.24 in 3.0 mi NNW 13.8 mph - 0.00 in Snow Light Snow
9:53 AM -0.0 °F -18.0 °F -6.0 °F 76% 29.24 in 5.0 mi NNW 12.7 mph - 0.00 in Snow Light Snow
10:53 AM 1.0 °F -14.9 °F -4.0 °F 79% 29.23 in 6.0 mi NW 10.4 mph - 0.00 in Snow Light Snow
11:53 AM 1.0 °F -16.6 °F -4.0 °F 79% 29.23 in 4.0 mi WNW 12.7 mph - 0.00 in Snow Light Snow
12:27 PM -0.4 °F -15.7 °F -5.8 °F 78% 29.23 in 2.0 mi WNW 9.2 mph - 0.00 in Snow Light Snow
12:36 PM -0.4 °F -16.7 °F -5.8 °F 78% 29.23 in 1.8 mi NW 10.4 mph - 0.00 in Snow Light Snow
12:53 PM -0.0 °F -14.2 °F -5.1 °F 79% 29.24 in 2.0 mi WNW 8.1 mph - 0.00 in Snow Light Snow
1:42 PM -0.4 °F -10.4 °F -5.8 °F 78% 29.24 in 4.0 mi West 4.6 mph - 0.00 in   Overcast
1:53 PM -0.9 °F -11.0 °F -6.0 °F 79% 29.24 in 7.0 mi SW 4.6 mph - 0.00 in   Overcast
2:53 PM -2.0 °F -16.6 °F -8.0 °F 76% 29.24 in 9.0 mi West 8.1 mph - N/A   Overcast
3:53 PM -0.9 °F -18.3 °F -7.1 °F 75% 29.23 in 10.0 mi West 11.5 mph - N/A   Overcast
4:53 PM -2.9 °F -23.1 °F -8.0 °F 79% 29.23 in 10.0 mi West 15.0 mph - N/A   Overcast
5:53 PM -5.1 °F -27.2 °F -9.9 °F 80% 29.24 in 10.0 mi West 17.3 mph - N/A   Partly Cloudy
6:53 PM -5.1 °F -26.6 °F -11.0 °F 76% 29.24 in 10.0 mi West 16.1 mph - N/A   Mostly Cloudy
7:53 PM -7.1 °F -26.8 °F -11.9 °F 79% 29.26 in 10.0 mi WSW 12.7 mph - N/A   Partly Cloudy
8:53 PM -8.0 °F -29.6 °F -14.1 °F 75% 29.27 in 10.0 mi WSW 15.0 mph - N/A   Clear
9:53 PM -9.0 °F -30.9 °F -15.0 °F 75% 29.29 in 10.0 mi WSW 15.0 mph - N/A   Clear
10:53 PM -9.9 °F -31.3 °F -16.1 °F 74% 29.31 in 10.0 mi WSW 13.8 mph - N/A   Clear
11:53 PM -9.0 °F -30.9 °F -15.0 °F 75% 29.33 in 10.0 mi WSW 15.0 mph - N/A   Clear